Probability
0 0 0 0 0 0 0 0 0 0 0 0 0 0 0 0 0 0 0 0 0 0 0 0 0 0 0 0 0 0 0 0 0 0 0 0 0 0
0 0 0 0 0 0 0 0 0 0 0 0 0 0 0 0 0 0 0 0 0 0 0 0 0 0 0 0 0 0 0 0 0 0 0 0 0 0
0 0 0 0 0 0 0 0 0 0 0 0 0 0 0 0 0 0 0 0 0 0 0 0 0 0 0 0 0 0 0 0 0 0 0 0 0 0
0 0 0 0 0 0 0 0 0 0 0 0 0 0 0 0 0 0 0 0 0 0 0 0 0 0 0 0 0 0 0 0 0 0 0 0 0 0
0 0 0 0 0 0 0 0 0 0 0 0 0 0 0 0 0 0 0 0 0 0 0 0 0 0 0 0 0 0 0 0 0 0 0 0 0 0
0 0 0 0 0 0 0 0 0 0 0 0 0 0 0 0 0 0 0 0 0 0 0 0 0 0 0 0 0 0 0 0 0 0 0 0 0 0
0 0 0 0 0 0 0 0 0 0 0 0 0 0 0 0 0 0 0 0 0 0 0 0 0 0 0 0 0 0 0 0 0 0 0 0 0 0
0 0 0 0 0 0 0 0 0 0 0 0 0 0 0 0 0 0 0 0 0 0 0 0 0 0 0 0 0 0 0 0 0 0 0 0 0 0
1 1 0 0 0 0 0 0 0 0 0 0 0 0 0 0 0 0 0 0 0 0 0 0 0 0 0 0 0 0 0 0 0 0 0 0 0 0
2 1 0 0 0 0 0 0 1 1 0 0 0 0 0 0 0 0 0 0 0 0 0 0 0 0 0 0 0 0 0 0 0 0 0 0 0 0
2 1 0 0 0 0 0 1 2 2 1 0 0 0 0 0 0 0 0 0 0 0 0 0 0 0 0 0 0 0 0 0 0 0 0 0 0 0
1 0 0 0 0 0 0 1 2 2 1 0 0 0 0 0 0 0 0 0 0 0 0 0 0 0 0 0 0 0 0 0 0 0 0 0 0 0
0 0 0 0 0 0 0 1 1 1 1 0 0 0 0 0 0 0 0 0 0 0 0 0 0 0 0 0 0 0 0 0 0 0 0 0 0 0
0 0 0 0 0 0 0 0 0 0 0 0 0 0 0 0 0 0 0 0 0 0 0 0 0 0 0 0 0 0 0 0 0 0 0 0 0 0
0 0 0 0 0 0 0 0 0 0 0 0 0 0 0 0 0 0 0 0 0 0 0 0 0 0 0 0 0 0 0 0 0 0 0 0 0 0
0 0 0 0 0 0 0 0 0 0 0 0 0 0 0 0 0 0 0 0 0 0 0 0 0 0 0 0 0 0 0 0 0 0 0 0 0 0
0 0 0 0 0 0 0 0 0 0 0 0 0 0 0 0 0 0 0 0 0 0 0 0 0 0 0 0 0 0 0 0 0 0 0 0 0 0
0 0 0 0 0 0 0 0 0 0 0 0 0 0 0 0 0 0 0 0 0 0 0 0 0 0 0 0 0 0 0 0 0 0 0 0 0 0
0 0 0 0 0 0 0 0 0 0 0 0 0 0 0 0 0 0 0 0 0 0 0 0 0 0 0 0 0 0 0 0 0 0 0 0 0 0
0 0 0 0 0 0 0 0 0 0 0 0 0 0 0 0 0 0 0 0 0 0 0 0 0 0 0 0 0 0 0 0 0 0 0 0 0 0
0 0 0 0 0 0 0 0 0 0 0 0 0 0 0 0 0 0 0 0 0 0 0 0 0 0 0 0 0 0 0 0 0 0 0 0 0 0
0 0 0 0 0 0 0 0 0 0 0 0 0 0 0 0 0 0 0 0 0 0 0 0 0 0 0 0 0 0 0 0 0 0 0 0 0 0
0 0 0 0 0 0 0 0 0 0 0 0 0 0 0 0 0 0 0 0 0 0 0 0 0 0 0 0 0 0 0 0 0 0 0 0 0 0
Wind_Speed
1 1 1 1 1 1 1 2 3 1 1 2 2 3 2 2 3 2 3 6 5 5 5 5 5 5 6 6 7 7 7 7 7 7 7 8 8 8
1 1 1 1 1 0 1 1 2 2 1 2 2 2 2 2 2 2 3 4 5 5 5 5 5 4 5 5 5 6 6 6 7 7 7 8 8 8
1 1 1 1 0 0 0 0 1 1 0 1 1 2 2 2 2 2 2 2 3 6 5 5 5 5 5 5 5 5 6 6 6 6 7 7 7 7
0 1 1 1 0 0 0 0 0 1 1 1 1 1 2 3 3 2 2 2 2 5 5 5 6 6 6 6 6 6 6 7 7 7 7 7 8 8
0 1 1 0 0 0 0 0 0 0 1 1 1 1 1 2 2 2 2 2 2 3 3 4 5 6 6 6 7 7 7 7 7 7 8 8 8 8
0 0 1 1 1 1 0 0 0 0 0 1 0 0 1 2 2 2 2 1 1 2 2 2 3 3 4 6 7 7 7 7 7 8 8 8 9 9
1 1 2 4 5 4 2 1 0 1 0 1 0 1 1 1 2 2 2 2 1 2 2 1 1 2 2 4 6 7 7 8 8 8 8 9 9 9
2 2 3 3 3 3 4 5 4 1 1 0 1 1 2 2 2 3 3 3 2 2 3 2 1 2 2 3 6 6 6 7 7 8 8 9 9 10
1 1 1 1 2 2 4 3 2 3 3 2 1 2 3 3 3 3 3 3 3 2 3 2 1 1 2 3 5 5 5 6 7 8 9 9 9 10
1 1 2 2 2 1 2 2 2 1 0 1 1 3 4 4 3 3 4 3 1 1 3 3 2 2 1 1 4 4 4 5 6 7 8 9 10 10
2 1 1 2 3 1 2 2 2 2 3 3 4 5 6 6 5 2 2 2 2 0 2 3 3 3 2 1 1 2 2 3 4 6 7 8 10 10
2 2 2 1 3 3 2 2 1 1 1 3 2 1 0 2 2 2 2 3 3 1 2 3 3 3 2 0 2 2 1 1 2 3 6 8 10 8
2 2 2 5 3 3 2 1 1 1 0 0 0 1 1 1 1 1 2 3 3 2 2 3 3 3 3 3 2 2 3 4 3 3 3 5 7 7
2 2 3 6 4 3 2 2 2 1 1 0 0 0 1 1 1 1 2 2 3 3 3 3 3 4 4 5 4 3 3 4 4 5 5 5 5 5
2 4 4 5 4 3 2 2 2 1 1 1 1 1 1 1 1 1 1 1 2 2 3 4 4 4 4 5 5 4 4 4 4 5 6 6 6 5
3 4 5 4 3 2 3 2 1 0 1 1 1 1 0 0 0 1 1 1 1 1 2 3 3 4 3 4 4 4 4 4 5 5 6 6 6 5
4 4 3 3 3 2 2 1 1 1 1 1 1 1 1 1 1 1 1 2 2 2 2 2 2 2 4 4 4 4 4 5 5 6 6 6 6 5
5 4 3 3 3 3 3 2 2 2 2 2 2 2 2 1 1 1 1 2 2 2 2 2 2 2 2 2 2 4 5 5 6 6 6 6 7 6
4 4 3 3 3 3 3 2 2 2 2 2 2 2 2 2 2 1 1 2 2 2 2 3 3 3 4 4 2 2 6 6 6 6 6 6 7 7
4 4 4 3 3 3 3 3 2 2 2 2 2 2 2 2 2 2 2 2 2 3 3 2 3 3 5 5 5 4 4 6 6 6 6 6 6 7
4 4 4 3 3 3 3 3 3 3 2 2 2 2 2 2 2 2 2 2 3 3 3 3 3 4 4 4 4 4 3 3 5 6 7 7 7 6
4 4 3 3 3 3 3 3 3 3 3 3 3 2 2 2 3 3 2 2 2 3 3 3 3 3 3 4 5 5 5 5 4 6 6 6 6 7
3 3 3 3 3 3 3 3 4 3 3 3 2 2 2 2 2 2 2 2 2 3 3 3 2 3 3 4 5 5 7 7 6 6 5 4 7 10
Wind_Direction
61 75 52 52 352 351 314 306 315 326 73 77 61 54 32 33 10 15 44 60 40 30 28 33 32 30 29 27 23 20 19 19 17 15 14 9 4 3
54 28 28 37 48 358 311 316 320 324 6 55 50 50 40 28 25 9 44 88 52 30 26 27 24 22 25 24 21 18 20 19 14 10 7 3 359 355
146 107 70 35 115 118 188 299 323 320 345 36 56 39 38 22 29 8 7 14 64 50 39 36 33 33 30 27 26 25 26 23 16 11 6 1 356 351
47 74 76 99 61 25 254 245 333 304 292 321 40 26 17 16 6 5 7 15 35 65 54 48 44 43 40 37 36 35 32 25 17 12 4 357 351 346
68 15 3 28 98 109 229 291 311 339 299 265 351 12 355 3 351 357 18 7 15 83 87 74 59 50 44 42 39 36 32 25 19 14 8 2 355 348
123 60 8 354 352 336 320 308 186 159 218 244 269 336 354 357 327 330 338 1 350 21 38 60 93 88 65 50 40 33 28 24 20 17 11 4 359 354
150 112 76 49 34 14 358 349 222 212 207 252 283 325 350 349 331 318 318 316 348 5 334 360 37 33 62 69 46 31 30 29 25 19 12 4 357 351
180 154 136 129 104 90 59 40 22 356 330 294 314 322 336 341 332 309 320 316 316 21 319 327 11 17 20 44 42 33 29 24 19 13 8 3 358 353
217 185 146 128 149 145 134 138 91 36 359 332 340 337 334 344 325 313 312 307 324 12 319 304 3 355 13 54 54 35 25 16 10 5 1 358 352 347
201 198 176 161 142 164 150 134 120 107 56 293 330 349 359 357 330 313 312 302 302 40 338 313 337 327 329 37 77 39 17 10 5 1 357 354 347 337
169 177 195 170 111 165 187 172 160 140 103 68 33 41 46 31 359 330 333 310 305 28 8 312 323 315 292 263 74 44 10 7 354 348 347 346 337 321
159 153 108 134 126 173 206 204 221 232 167 149 146 148 108 81 16 335 333 311 316 339 31 320 324 322 296 314 343 326 321 338 315 328 341 345 340 326
177 177 144 141 150 172 237 254 335 317 194 168 94 66 43 43 42 359 350 327 323 336 3 318 314 314 306 308 309 329 333 333 327 328 329 340 337 330
185 176 126 130 142 154 182 110 104 202 217 205 258 318 346 12 21 19 14 4 352 343 342 323 312 313 304 301 308 321 327 329 330 331 331 325 308 297
154 97 104 129 148 152 139 140 174 206 213 232 256 289 324 354 12 8 3 16 360 358 341 324 311 307 299 300 307 314 316 326 329 325 324 325 325 324
185 142 137 142 168 135 141 169 200 229 261 259 277 296 311 307 288 302 296 298 315 339 354 337 322 308 298 305 304 309 317 317 324 323 321 319 318 321
177 178 176 173 178 177 173 175 189 195 216 252 260 258 251 249 270 296 293 294 300 316 335 344 338 329 319 306 298 307 312 313 315 319 316 314 315 318
172 186 188 190 194 198 198 198 205 219 231 234 240 245 246 246 256 281 285 291 300 308 315 318 307 295 295 320 314 306 309 311 312 313 308 307 309 319
184 199 200 199 202 206 211 216 221 223 228 237 242 243 243 239 240 252 258 275 287 297 303 307 308 305 302 305 307 297 308 309 309 309 308 305 307 317
206 211 214 210 210 213 217 221 225 222 221 231 238 241 236 237 239 245 255 276 288 292 295 302 306 305 298 302 304 307 296 307 310 308 309 305 304 303
205 210 216 216 215 219 223 226 228 228 228 229 228 233 236 238 244 249 259 270 275 281 290 299 309 295 291 293 292 300 311 291 299 306 313 309 309 306
209 212 215 218 218 219 222 225 229 226 223 223 223 226 230 234 239 246 255 262 269 278 289 304 315 302 296 293 297 306 316 320 289 266 272 284 310 314
216 214 213 215 217 218 222 225 227 230 224 222 225 226 227 227 232 237 249 261 272 279 286 295 301 301 302 302 304 309 314 318 317 312 305 275 268 278